Location: Davayat
(45.9471°N, 3.1105°E)
Time: 16:21:41
(UTC+00:00)

CZ-4B R/B - Pass Details

Date: 01 December 2020
Orbit: 390 x 458 km, 97.6° (Epoch: 17 January)

Event Time Altitude Azimuth Distance (km) Brightness Sun altitude
Exits shadow 18:30:37 16° 323° (NW) 1,165 3.8 -24.7°
Maximum altitude 18:31:52 20° 292° (WNW) 1,021 3.8 -25.0°
Drops below altitude 10° 18:34:14 10° 243° (WSW) 1,478 4.9 -25.4°
Sets 18:36:34 0° 226° (SW) 2,348 5.8 -25.8°
